Date String (YYYY-MM-DD hh:mm:ss) UTC,Instrument flags,Ambient pressure (hPa),Sample flow (lpm),Bypass flow (lpm),Sample temperature (°C),Ambient temperature (°C),ASC tube jacket temperature (°C),LED temperature (°C),Box temperature (°C),Sample RH (%),Span deviation,Mass concentration (μg/m³),Mass concentration (μg/m³),Mass concentration (μg/m³)
DateTimeUTC,F1_M11,P_M11,Q1_M11,Q2_M11,T1_M11,T2_M11,T3_M11,T4_M11,T5_M11,U1_M11,ZSPAN_M11,X0_M11,X2_M11,X1_M11
2023-01-15 05:00:00,,0814.8,5.00,0.00,24.1,22.7,00.0,33.0,25.9,12.1,0000.0,0002.19,0001.10,0000.92
2023-01-15 05:01:00,,0814.7,5.00,0.00,24.1,22.8,00.0,33.0,25.9,12.1,0000.0,0001.75,0001.09,0000.91
2023-01-15 05:02:00,,0814.7,5.00,0.00,24.1,22.8,00.0,33.0,25.9,12.1,0000.0,0001.52,0001.10,0000.91
2023-01-15 05:03:00,,0814.8,4.99,0.00,24.1,22.8,00.0,33.0,25.9,12.2,0000.0,0001.59,0001.13,0000.93
2023-01-15 05:04:00,,0814.9,5.00,0.00,24.1,22.7,00.0,33.0,25.9,12.2,0000.0,0001.62,0001.16,0000.96
2023-01-15 05:05:00,,0814.8,5.00,0.00,24.1,22.8,00.0,33.0,25.9,12.2,0000.0,0001.61,0001.16,0000.98
2023-01-15 05:06:00,,0814.8,5.00,0.00,24.1,22.8,00.0,33.0,25.9,12.1,0000.0,0001.58,0001.15,0000.97
2023-01-15 05:07:00,,0815.0,4.99,0.00,24.1,22.9,00.0,33.0,25.9,12.0,0000.0,0001.56,0001.14,0000.95
2023-01-15 05:08:00,,0814.7,5.00,0.00,24.2,22.9,00.0,33.0,25.9,12.0,0000.0,0001.55,0001.13,0000.95
2023-01-15 05:09:00,,0815.1,5.00,0.00,24.2,23.0,00.0,33.0,26.0,11.9,0000.0,0001.56,0001.13,0000.94
2023-01-15 05:10:00,,0815.0,5.00,0.00,24.2,23.0,00.0,33.0,26.0,11.9,0000.0,0001.54,0001.12,0000.94
2023-01-15 05:11:00,,0815.1,5.01,0.00,24.2,23.0,00.0,33.0,26.0,11.9,0000.0,0001.59,0001.13,0000.94
2023-01-15 05:12:00,,0814.9,5.00,0.00,24.2,23.0,00.0,33.0,26.0,11.8,0000.0,0001.64,0001.13,0000.92
2023-01-15 05:13:00,,0814.8,4.99,0.00,24.2,23.0,00.0,33.0,26.0,11.8,0000.0,0001.62,0001.10,0000.90
2023-01-15 05:14:00,,0815.1,5.02,0.00,24.2,22.9,00.0,33.0,25.9,11.7,0000.0,0001.55,0001.06,0000.88
2023-01-15 05:15:00,,0815.0,4.99,0.00,24.2,22.9,00.0,33.0,25.9,11.7,0000.0,0001.50,0001.02,0000.84
2023-01-15 05:16:00,,0815.1,4.98,0.00,24.2,22.9,00.0,33.0,26.0,11.8,0000.0,0001.49,0000.99,0000.80
2023-01-15 05:17:00,,0815.0,4.97,0.00,24.2,22.9,00.0,33.0,26.0,11.8,0000.0,0001.53,0000.96,0000.77
2023-01-15 05:18:00,,0814.8,5.00,0.00,24.2,23.0,00.0,33.1,26.0,12.2,0000.0,0001.48,0000.93,0000.76
2023-01-15 05:19:00,,0815.0,5.01,0.00,24.2,23.0,00.0,33.1,26.0,12.2,0000.0,0001.49,0000.92,0000.74
2023-01-15 05:20:00,,0814.8,5.01,0.00,24.2,23.0,00.0,33.1,25.9,12.1,0000.0,0001.57,0000.92,0000.74
2023-01-15 05:21:00,,0815.1,5.00,0.00,24.2,23.0,00.0,33.1,26.0,11.7,0000.0,0001.68,0000.93,0000.72
2023-01-15 05:22:00,,0815.1,5.00,0.00,24.3,23.0,00.0,33.1,26.0,11.7,0000.0,0001.67,0000.90,0000.70
2023-01-15 05:23:00,,0815.0,5.01,0.00,24.3,23.0,00.0,33.1,26.0,11.6,0000.0,0001.60,0000.86,0000.69
2023-01-15 05:24:00,,0815.1,5.00,0.00,24.2,23.0,00.0,33.1,26.0,11.7,0000.0,0001.54,0000.84,0000.68
2023-01-15 05:25:00,,0815.1,5.00,0.00,24.3,23.0,00.0,33.1,26.0,11.8,0000.0,0001.54,0000.84,0000.68
2023-01-15 05:26:00,,0814.8,5.00,0.00,24.3,23.0,00.0,33.1,26.0,11.7,0000.0,0001.59,0000.87,0000.68
2023-01-15 05:27:00,,0815.1,5.00,0.00,24.3,23.0,00.0,33.1,26.0,12.0,0000.0,0001.62,0000.89,0000.69
2023-01-15 05:28:00,,0815.1,4.99,0.00,24.3,23.0,00.0,33.1,26.1,11.6,0000.0,0001.51,0000.88,0000.69
2023-01-15 05:29:00,,0815.2,5.01,0.00,24.3,23.0,00.0,33.1,26.0,11.6,0000.0,0001.43,0000.85,0000.68
2023-01-15 05:30:00,,0815.1,5.01,0.00,24.3,23.0,00.0,33.1,26.0,11.7,0000.0,0001.43,0000.85,0000.67
2023-01-15 05:31:00,,0815.1,5.00,0.00,24.3,23.0,00.0,33.1,26.0,11.8,0000.0,0001.30,0000.82,0000.65
2023-01-15 05:32:00,,0815.0,5.01,0.00,24.3,23.0,00.0,33.1,26.0,11.7,0000.0,0001.19,0000.80,0000.65
2023-01-15 05:33:00,,0814.6,4.99,0.00,24.3,22.9,00.0,33.1,26.0,11.7,0000.0,0001.13,0000.79,0000.65
2023-01-15 05:34:00,,0814.5,5.00,0.00,24.3,22.9,00.0,33.1,26.0,11.7,0000.0,0001.09,0000.77,0000.63
2023-01-15 05:35:00,,0814.5,4.99,0.00,24.3,22.9,00.0,33.1,26.0,11.7,0000.0,0001.04,0000.74,0000.60
2023-01-15 05:36:00,,0814.5,4.99,0.00,24.3,22.9,00.0,33.1,26.0,11.6,0000.0,0000.93,0000.68,0000.56
2023-01-15 05:37:00,,0814.4,5.01,0.00,24.3,22.9,00.0,33.1,26.0,11.5,0000.0,0000.84,0000.62,0000.53
2023-01-15 05:38:00,,0814.4,5.01,0.00,24.3,22.9,00.0,33.1,26.0,11.7,0000.0,0000.79,0000.57,0000.50
2023-01-15 05:39:00,,0814.8,5.01,0.00,24.3,22.9,00.0,33.1,26.0,11.6,0000.0,0000.76,0000.55,0000.47
2023-01-15 05:40:00,,0814.4,5.00,0.00,24.3,22.9,00.0,33.1,26.0,11.7,0000.0,0000.79,0000.56,0000.47
2023-01-15 05:41:00,,0814.5,4.99,0.00,24.3,22.9,00.0,33.1,26.0,11.9,0000.0,0000.84,0000.56,0000.47
2023-01-15 05:42:00,,0814.5,4.99,0.00,24.3,22.9,00.0,33.1,26.0,11.8,0000.0,0000.83,0000.54,0000.46
2023-01-15 05:43:00,,0814.5,5.00,0.00,24.3,22.8,00.0,33.1,26.0,11.9,0000.0,0000.82,0000.54,0000.45
2023-01-15 05:44:00,,0814.4,4.99,0.00,24.3,22.8,00.0,33.1,26.0,11.8,0000.0,0000.77,0000.52,0000.44
2023-01-15 05:45:00,,0814.4,5.00,0.00,24.3,22.8,00.0,33.1,26.0,11.8,0000.0,0000.80,0000.53,0000.44
2023-01-15 05:46:00,,0814.4,5.01,0.00,24.3,22.8,00.0,33.1,26.0,11.8,0000.0,0000.83,0000.54,0000.45
2023-01-15 05:47:00,,0814.4,5.01,0.00,24.3,22.8,00.0,33.1,26.0,11.8,0000.0,0000.87,0000.56,0000.46
2023-01-15 05:48:00,,0814.4,5.03,0.00,24.2,22.8,00.0,33.1,26.0,11.9,0000.0,0000.88,0000.57,0000.47
2023-01-15 05:49:00,,0814.4,5.01,0.00,24.3,22.8,00.0,33.1,26.0,11.9,0000.0,0000.86,0000.56,0000.47
2023-01-15 05:50:00,,0814.4,5.00,0.00,24.2,22.8,00.0,33.1,25.9,11.8,0000.0,0000.87,0000.57,0000.47
2023-01-15 05:51:00,,0814.4,5.00,0.00,24.2,22.8,00.0,33.1,25.9,12.0,0000.0,0000.87,0000.56,0000.46
2023-01-15 05:52:00,,0814.3,5.01,0.00,24.2,22.8,00.0,33.1,26.0,12.1,0000.0,0000.81,0000.55,0000.44
2023-01-15 05:53:00,,0814.3,5.03,0.00,24.2,22.8,00.0,33.1,26.0,12.1,0000.0,0000.77,0000.53,0000.42
2023-01-15 05:54:00,,0814.3,4.98,0.00,24.2,22.8,00.0,33.1,25.9,12.0,0000.0,0000.77,0000.52,0000.42
2023-01-15 05:55:00,,0814.3,5.01,0.00,24.2,22.8,00.0,33.1,25.9,11.9,0000.0,0000.77,0000.52,0000.41
2023-01-15 05:56:00,,0814.3,4.99,0.00,24.2,22.7,00.0,33.1,25.9,11.7,0000.0,0000.72,0000.50,0000.41
2023-01-15 05:57:00,,0814.5,4.98,0.00,24.2,22.7,00.0,33.1,25.9,11.9,0000.0,0000.71,0000.50,0000.41
2023-01-15 05:58:00,,0814.2,5.00,0.00,24.2,22.7,00.0,33.1,25.9,12.0,0000.0,0000.68,0000.49,0000.41
2023-01-15 05:59:00,,0814.2,5.00,0.00,24.2,22.7,00.0,33.1,25.9,11.8,0000.0,0000.67,0000.48,0000.41
